Newberry, MI

4:43 PM EDT on August 18, 2017 (GMT -0400)
Luce County

Weather History for KERY - February, 2013

Change the Weather History Date:

Tuesday, February 12, 2013

  Actual Average Record
Temperature  
Mean Temperature 20 °F -  
Max Temperature 26 °F 23 °F 41 °F (1999)
Min Temperature 15 °F 6 °F -26 °F (1914)
Degree Days  
Heating Degree Days 44    
Moisture  
Dew Point 19 °F    
Average Humidity 81    
Maximum Humidity 93    
Minimum Humidity 69    
Precipitation  
Precipitation 0.00 in - - ()
Sea Level Pressure  
Sea Level Pressure 29.82 in    
Wind  
Wind Speed 11 mph (WSW)    
Max Wind Speed 15 mph    
Max Gust Speed 21 mph    
Visibility 9 miles    
Events Snow    
Averages and records for this station are not official NWS values.
T = Trace of Precipitation, MM = Missing Value Source: NWS Daily Summary

Daily Weather History Graph

Daily Weather History Graph

Search for Another Location

Airport or City:

Trip Planner

Search our weather history database for the weather conditions in past years. The results will help you decide how hot, cold, wet, or windy it might be!

Date:

Astronomy

Feb. 12, 2013 Rise Set
Actual Time 7:49 AM EST 6:03 PM EST
Civil Twilight 7:18 AM EST 6:34 PM EST
Nautical Twilight 6:42 AM EST 7:09 PM EST
Astronomical Twilight 6:08 AM EST 7:44 PM EST
Moon 8:34 AM EST (2/12) 9:17 PM EST (2/12)
Length of Visible Light 11h 16m
Length of Day
10h 14m
Waxing Crescent, 7% of the Moon is Illuminated
Feb 12
Waxing Crescent
Feb 17
First Quarter
Feb 25
Full
Mar 4
Last Quarter
Mar 11
New

Hourly Weather History & Observations

Time (EST) Temp. Windchill Dew Point Humidity Pressure Visibility Wind Dir Wind Speed Gust Speed Precip Events Conditions
12:14 AM 24.8 °F 12.9 °F 21.2 °F 86% 29.72 in 7.0 mi West 13.8 mph - N/A Snow Light Snow
12:34 AM 23.0 °F 10.6 °F 21.2 °F 93% 29.72 in 7.0 mi West 13.8 mph - N/A Snow Light Snow
12:54 AM 23.0 °F 11.1 °F 21.2 °F 93% 29.74 in 10.0 mi West 12.7 mph - N/A   Overcast
1:14 AM 23.0 °F 10.6 °F 21.2 °F 93% 29.74 in 7.0 mi West 13.8 mph 20.7 mph N/A Snow Light Snow
1:34 AM 23.0 °F 10.6 °F 19.4 °F 86% 29.75 in 5.0 mi West 13.8 mph 19.6 mph N/A Snow Light Snow
1:55 AM 23.0 °F 10.1 °F 19.4 °F 86% 29.75 in 10.0 mi West 15.0 mph 19.6 mph N/A   Overcast
2:14 AM 23.0 °F 11.1 °F 19.4 °F 86% 29.76 in 10.0 mi West 12.7 mph 18.4 mph N/A   Overcast
2:34 AM 23.0 °F 10.6 °F 19.4 °F 86% 29.77 in 10.0 mi West 13.8 mph - N/A Snow Light Snow
2:55 AM 23.0 °F 10.6 °F 19.4 °F 86% 29.78 in 7.0 mi West 13.8 mph - N/A Snow Light Snow
3:14 AM 23.0 °F 11.1 °F 19.4 °F 86% 29.78 in 7.0 mi West 12.7 mph 18.4 mph N/A Snow Light Snow
3:35 AM 23.0 °F 11.1 °F 19.4 °F 86% 29.79 in 7.0 mi West 12.7 mph - N/A Snow Light Snow
3:55 AM 23.0 °F 12.4 °F 19.4 °F 86% 29.79 in 7.0 mi West 10.4 mph - N/A Snow Light Snow
4:14 AM 23.0 °F 13.1 °F 19.4 °F 86% 29.79 in 10.0 mi West 9.2 mph - N/A   Overcast
4:35 AM 23.0 °F 13.9 °F 21.2 °F 93% 29.80 in 10.0 mi West 8.1 mph - N/A Snow Light Snow
4:55 AM 23.0 °F 13.9 °F 21.2 °F 93% 29.80 in 10.0 mi West 8.1 mph - N/A   Overcast
5:14 AM 23.0 °F 13.9 °F 21.2 °F 93% 29.81 in 10.0 mi West 8.1 mph - N/A   Overcast
5:35 AM 24.8 °F 17.9 °F 21.2 °F 86% 29.81 in 10.0 mi WNW 5.8 mph - N/A   Overcast
5:54 AM 24.8 °F 16.9 °F 21.2 °F 86% 29.82 in 10.0 mi West 6.9 mph - N/A   Overcast
6:14 AM 24.8 °F 16.9 °F 21.2 °F 86% 29.83 in 10.0 mi West 6.9 mph - N/A   Overcast
6:35 AM 24.8 °F 16.9 °F 21.2 °F 86% 29.83 in 10.0 mi West 6.9 mph - N/A   Overcast
7:14 AM 24.8 °F 16.9 °F 21.2 °F 86% 29.84 in 10.0 mi West 6.9 mph - N/A   Overcast
7:35 AM 24.8 °F 15.3 °F 21.2 °F 86% 29.85 in 10.0 mi West 9.2 mph - N/A   Overcast
7:54 AM 24.8 °F 15.3 °F 21.2 °F 86% 29.85 in 7.0 mi West 9.2 mph - N/A   Overcast
8:14 AM 24.8 °F 14.0 °F 21.2 °F 86% 29.86 in 5.0 mi West 11.5 mph - N/A   Overcast
8:35 AM 24.8 °F 14.6 °F 21.2 °F 86% 29.87 in 7.0 mi West 10.4 mph - N/A   Overcast
8:54 AM 24.8 °F 14.0 °F 21.2 °F 86% 29.88 in 10.0 mi WSW 11.5 mph - N/A   Overcast
9:15 AM 24.8 °F 14.0 °F 21.2 °F 86% 29.89 in 5.0 mi West 11.5 mph - N/A Snow Light Snow
9:34 AM 24.8 °F 13.4 °F 21.2 °F 86% 29.89 in 2.5 mi West 12.7 mph - N/A Snow Light Snow
9:55 AM 24.8 °F 14.0 °F 21.2 °F 86% 29.89 in 3.0 mi WSW 11.5 mph - N/A Snow Light Snow
10:15 AM 24.8 °F 12.9 °F 21.2 °F 86% 29.89 in 5.0 mi WSW 13.8 mph - N/A Snow Light Snow
10:34 AM 24.8 °F 14.0 °F 19.4 °F 80% 29.89 in 10.0 mi WSW 11.5 mph - N/A Snow Light Snow
10:55 AM 24.8 °F 14.0 °F 19.4 °F 80% 29.89 in 4.0 mi WSW 11.5 mph - N/A Snow Light Snow
11:14 AM 24.8 °F 14.6 °F 19.4 °F 80% 29.89 in 5.0 mi WSW 10.4 mph - N/A Snow Light Snow
11:35 AM 24.8 °F 13.4 °F 19.4 °F 80% 29.89 in 10.0 mi WSW 12.7 mph - N/A Snow Light Snow
11:55 AM 24.8 °F 15.3 °F 19.4 °F 80% 29.89 in 4.0 mi WSW 9.2 mph - N/A Snow Light Snow
12:14 PM 24.8 °F 16.1 °F 19.4 °F 80% 29.89 in 7.0 mi WSW 8.1 mph - N/A Snow Light Snow
12:35 PM 26.6 °F 16.2 °F 19.4 °F 74% 29.88 in 10.0 mi WSW 11.5 mph - N/A Snow Light Snow
12:55 PM 26.6 °F 17.5 °F 19.4 °F 74% 29.87 in 10.0 mi WSW 9.2 mph - N/A   Overcast
1:14 PM 26.6 °F 16.8 °F 19.4 °F 74% 29.86 in 10.0 mi West 10.4 mph - N/A   Mostly Cloudy
1:35 PM 26.6 °F 17.5 °F 19.4 °F 74% 29.85 in 10.0 mi West 9.2 mph - N/A   Mostly Cloudy
1:54 PM 26.6 °F 16.8 °F 17.6 °F 69% 29.85 in 10.0 mi WSW 10.4 mph - N/A   Overcast
2:14 PM 26.6 °F 17.5 °F 19.4 °F 74% 29.84 in 10.0 mi WSW 9.2 mph - N/A   Overcast
2:35 PM 26.6 °F 16.2 °F 17.6 °F 69% 29.83 in 10.0 mi SSW 11.5 mph - N/A   Overcast
2:54 PM 26.6 °F 16.8 °F 17.6 °F 69% 29.83 in 10.0 mi SSW 10.4 mph - N/A   Overcast
3:14 PM 26.6 °F 18.2 °F 17.6 °F 69% 29.83 in 10.0 mi WSW 8.1 mph - N/A   Overcast
3:34 PM 26.6 °F 19.1 °F 17.6 °F 69% 29.82 in 10.0 mi WSW 6.9 mph - N/A   Overcast
3:54 PM 26.6 °F 17.5 °F 17.6 °F 69% 29.82 in 10.0 mi SW 9.2 mph - N/A   Overcast
4:15 PM 26.6 °F 17.5 °F 17.6 °F 69% 29.83 in 10.0 mi WSW 9.2 mph - N/A   Overcast
4:34 PM 24.8 °F 14.6 °F 17.6 °F 74% 29.83 in 10.0 mi SW 10.4 mph - N/A Snow Light Snow
4:55 PM 24.8 °F 15.3 °F 17.6 °F 74% 29.83 in 10.0 mi SSW 9.2 mph - N/A   Overcast
5:15 PM 24.8 °F 14.0 °F 17.6 °F 74% 29.82 in 10.0 mi SSW 11.5 mph - N/A Snow Light Snow
5:34 PM 24.8 °F 16.1 °F 17.6 °F 74% 29.83 in 10.0 mi SSW 8.1 mph - N/A Snow Light Snow
5:55 PM 24.8 °F 14.6 °F 17.6 °F 74% 29.83 in 10.0 mi SW 10.4 mph - N/A   Overcast
6:15 PM 24.8 °F 16.9 °F 17.6 °F 74% 29.83 in 10.0 mi SW 6.9 mph - N/A   Overcast
6:34 PM 24.8 °F 14.6 °F 15.8 °F 69% 29.82 in 10.0 mi SSW 10.4 mph - N/A   Overcast
6:55 PM 24.8 °F 15.3 °F 17.6 °F 74% 29.83 in 10.0 mi SSW 9.2 mph - N/A   Overcast
7:14 PM 23.0 °F 13.1 °F 17.6 °F 80% 29.83 in 10.0 mi SSW 9.2 mph - N/A   Overcast
7:35 PM 23.0 °F 13.1 °F 17.6 °F 80% 29.83 in 10.0 mi SSW 9.2 mph - N/A   Overcast
7:55 PM 23.0 °F 14.7 °F 15.8 °F 74% 29.83 in 10.0 mi SSW 6.9 mph - N/A   Overcast
8:14 PM 21.2 °F 13.6 °F 15.8 °F 80% 29.83 in 10.0 mi SSW 5.8 mph - N/A   Mostly Cloudy
8:35 PM 19.4 °F 14.3 °F 14.0 °F 80% 29.82 in 10.0 mi South 3.5 mph - N/A   Clear
8:54 PM 19.4 °F - 14.0 °F 80% 29.81 in 10.0 mi Calm Calm - N/A   Clear
9:14 PM 17.6 °F 12.3 °F 12.2 °F 79% 29.81 in 10.0 mi South 3.5 mph - N/A   Clear
9:34 PM 17.6 °F 9.3 °F 12.2 °F 79% 29.80 in 10.0 mi South 5.8 mph - N/A   Clear
9:54 PM 17.6 °F 9.3 °F 12.2 °F 79% 29.80 in 10.0 mi SSW 5.8 mph - N/A   Clear
10:15 PM 17.6 °F 7.3 °F 12.2 °F 79% 29.79 in 10.0 mi SSW 8.1 mph - N/A   Clear
10:34 PM 15.8 °F 5.1 °F 12.2 °F 86% 29.79 in 10.0 mi SSW 8.1 mph - N/A   Clear
10:54 PM 17.6 °F 6.4 °F 15.8 °F 93% 29.79 in 10.0 mi SSW 9.2 mph - N/A   Mostly Cloudy
11:15 PM 19.4 °F 7.9 °F 15.8 °F 86% 29.78 in 10.0 mi SSW 10.4 mph - N/A   Overcast
11:34 PM 19.4 °F 8.6 °F 17.6 °F 93% 29.77 in 10.0 mi SSW 9.2 mph - N/A   Overcast
11:55 PM 21.2 °F 11.7 °F 17.6 °F 86% 29.77 in 10.0 mi SSW 8.1 mph - N/A   Overcast